EDT,Max TemperatureF,Mean TemperatureF,Min TemperatureF,Max Dew PointF,MeanDew PointF,Min DewpointF,Max Humidity, Mean Humidity, Min Humidity, Max Sea Level PressureIn, Mean Sea Level PressureIn, Min Sea Level PressureIn, Max VisibilityMiles, Mean VisibilityMiles, Min VisibilityMiles, Max Wind SpeedMPH, Mean Wind SpeedMPH, Max Gust SpeedMPH,PrecipitationIn, CloudCover, Events, WindDirDegrees
2014-3-1,35,24,12,21,8,-8,93,52,38,30.10,30.05,30.00,10,10,1,15,9,21,0.00,6,,214
2014-3-2,17,9,1,16,2,-8,93,74,52,30.15,30.10,30.07,10,6,1,13,8,,0.02,6,,341
2014-3-3,8,3,-2,-4,-7,-13,85,69,52,30.28,30.22,30.13,10,10,3,10,6,,0.00,1,,339
2014-3-4,21,7,-7,10,-3,-15,100,64,26,30.27,30.18,30.10,10,10,10,8,2,,0.00,6,,289
2014-3-5,17,12,6,10,5,-6,92,69,41,30.42,30.26,30.12,10,9,2,13,7,17,0.00,6,,3
2014-3-6,30,18,5,7,0,-8,85,48,29,30.42,30.32,30.17,10,10,8,16,8,21,0.00,0,,130
2014-3-7,46,32,17,27,17,7,70,56,43,30.16,30.02,29.87,10,10,10,15,10,18,0.00,0,,187
2014-3-8,35,28,21,28,25,16,93,81,60,30.00,29.92,29.84,10,6,1,15,8,17,0.00,7,,277
2014-3-9,32,22,14,19,13,10,86,67,44,30.12,30.00,29.80,10,10,5,20,10,28,0.00,4,,253
2014-3-10,48,39,30,36,28,19,75,65,57,29.80,29.67,29.53,10,10,9,18,12,28,0.00,4,,228
2014-3-11,50,44,37,37,35,32,87,74,54,29.70,29.65,29.60,10,8,4,21,9,25,0.00,5,,257
2014-3-12,39,24,8,36,23,3,100,88,79,29.68,29.47,29.22,10,3,0,28,12,39,0.38,8,,17
2014-3-13,15,8,0,3,-2,-8,92,68,52,30.00,29.87,29.67,10,9,2,17,12,24,0.00,3,,290
2014-3-14,51,34,17,37,20,3,87,54,38,29.99,29.79,29.62,10,10,9,23,12,40,0.04,4,,204
2014-3-15,41,31,21,37,25,12,93,77,68,30.10,29.86,29.64,10,9,2,21,15,29,0.02,8,,275
2014-3-16,21,16,10,12,5,0,85,66,45,30.25,30.17,30.08,10,10,2,16,9,20,0.00,3,,355
2014-3-17,33,18,3,10,3,-2,79,52,25,30.06,29.96,29.88,10,10,10,10,7,,0.00,0,,69
2014-3-18,46,34,23,27,18,3,69,51,40,30.05,30.01,29.92,10,10,10,15,7,21,0.00,1,,159
2014-3-19,44,38,33,37,30,16,100,73,48,30.00,29.83,29.68,10,9,5,24,12,37,0.12,6,,175
2014-3-20,39,34,28,37,26,21,93,82,74,29.94,29.82,29.70,10,5,1,26,18,40,0.00,8,,254
2014-3-21,39,30,21,21,19,16,93,62,45,30.05,29.97,29.83,10,10,10,14,8,20,0.00,2,,257
2014-3-22,42,35,28,36,26,21,93,76,52,30.06,29.87,29.60,10,9,3,24,13,34,0.02,8,,250
2014-3-23,28,19,10,27,10,3,93,74,53,30.21,30.14,30.04,10,7,1,15,10,22,0.00,7,,321
2014-3-24,21,14,6,16,6,1,86,67,53,30.21,30.14,30.02,10,9,2,13,7,21,0.00,7,,279
2014-3-25,30,22,14,18,12,7,86,67,37,30.01,29.90,29.82,10,9,1,15,6,22,0.00,5,,219
2014-3-26,17,12,6,12,3,-2,85,67,57,30.22,30.12,29.93,10,9,2,20,11,26,0.00,4,,301
2014-3-27,42,25,8,27,12,3,85,58,25,30.22,30.09,29.85,10,10,10,16,7,24,0.00,5,,179
2014-3-28,51,42,32,46,34,21,93,78,49,30.14,29.87,29.74,10,9,2,29,11,36,0.09,8,,218
2014-3-29,39,34,28,34,30,27,100,90,81,30.17,30.01,29.84,10,8,1,18,8,23,0.73,8,,45
2014-3-30,37,32,26,28,25,19,93,80,65,30.04,29.93,29.85,10,7,2,21,14,30,0.04,5,,350
2014-3-31,51,38,24,28,24,18,86,59,35,30.18,30.13,30.04,10,10,10,8,5,,0.00,0,,360